This is the latest recevied weather packets stored in our database for station/object KI4BIY. If no packets are shown the sender has not sent any weather packets the latest 10 day(s).
| Time | Temp. | Humidity | Pressure | Rain* | Wind** | Luminosity | Snow |
|---|---|---|---|---|---|---|---|
| 1777469353 | 17.22° C | 99% | 1013.8 hPa | 0 mm | - | 65 W/m² | - |
| 1777469049 | 17.22° C | 99% | 1013.7 hPa | 0 mm | - | 52 W/m² | - |
| 1777468744 | 17.22° C | 99% | 1013.5 hPa | 0 mm | - | 46 W/m² | - |
| 1777468440 | 17.22° C | 99% | 1013.4 hPa | 0 mm | - | 26 W/m² | - |
| 1777468136 | 17.22° C | 99% | 1013.2 hPa | 0 mm | - | 39 W/m² | - |
| 1777467833 | 17.78° C | 99% | 1013.2 hPa | 0 mm | - | 28 W/m² | - |
| 1777467528 | 17.78° C | 99% | 1013.1 hPa | 0 mm | - | 21 W/m² | - |
| 1777467223 | 18.33° C | 99% | 1012.6 hPa | 0 mm | - | 22 W/m² | - |
| 1777466921 | 18.33° C | 99% | 1012.6 hPa | 0 mm | - | 22 W/m² | - |
| 1777466619 | 18.33° C | 99% | 1012.7 hPa | 0 mm | - | 10 W/m² | - |
| 1777466315 | 18.33° C | 99% | 1012.4 hPa | 0 mm | - | 7 W/m² | - |
| 1777466012 | 18.33° C | 99% | 1012.3 hPa | 0 mm | - | 11 W/m² | - |
| 1777465707 | 18.33° C | 99% | 1012.3 hPa | 0 mm | - | 20 W/m² | - |
| 1777465403 | 18.33° C | 99% | 1012.2 hPa | 0 mm | - | 42 W/m² | - |
| 1777465102 | 18.33° C | 99% | 1012 hPa | 0 mm | - | 19 W/m² | - |
| 1777464798 | 18.33° C | 99% | 1012 hPa | 0 mm | - | 22 W/m² | - |
| 1777464493 | 18.33° C | 99% | 1011.6 hPa | 0 mm | - | 14 W/m² | - |
| 1777464190 | 17.78° C | 99% | 1011.5 hPa | 0 mm | - | 13 W/m² | - |
| 1777463889 | 18.33° C | 99% | 1011.2 hPa | 0 mm | - | 11 W/m² | - |
| 1777463586 | 18.33° C | 99% | 1011.3 hPa | 0 mm | - | 9 W/m² | - |
| 1777463280 | 18.33° C | 99% | 1011.3 hPa | 0 mm | - | 4 W/m² | - |
| 1777462977 | 18.33° C | 99% | 1011.3 hPa | 0 mm | - | 4 W/m² | - |
| 1777462673 | 18.33° C | 99% | 1011.3 hPa | 0 mm | - | 3 W/m² | - |
| 1777462368 | 18.33° C | 99% | 1011.2 hPa | 0 mm | - | 1 W/m² | - |
| 1777462064 | 18.33° C | 99% | 1011.1 hPa | 0 mm | - | 0 W/m² | - |
* Rain latest hour (hover to see other rain measurements)
** Current wind speed in m/s (hover to see current wind gust speed)